Miscellaneous Local Product
Issued by NWS North Platte, NE

Home | Current Version | Previous Version | Text Only | Print | Product List | Glossary On
Versions: 1 2 3 4 5 6 7 8 9 10 11 12 13 14 15 16 17 18 19 20 21 22 23 24 25 26 27 28 29 30 31 32 33 34 35 36 37 38 39 40 41 42 43 44 45 46 47 48 49 50
000
AXUS43 KLBF 241210
MISLBF


WESTERN AND NORTH CENTRAL NEBRASKA HOURLY WEATHER ROUNDUP
NATIONAL WEATHER SERVICE NORTH PLATTE NE
700 AM CDT THU JUL 24 2014

***STATIONS NOT REPORTING VARIABLES SUCH AS SKY/WEATHER OR
PRESSURE ARE PROVIDED BY THE NEBRASKA DEPARTMENT OF
ROADS...RAWS...AND APRS NETWORKS...AND ARE NOT UNDER
NATIONAL WEATHER SERVICE QUALITY CONTROL***

...OBSERVATIONS IN AND NEAR THE EASTERN PANHANDLE OF NEBRASKA...

CITY           SKY/WX    TMP DP  RH WIND       PRES   REMARKS
PINE RIDGE     MOCLDY    71  65  81 S16G25    29.92S
CHADRON        PTCLDY    71  64  78 S7        29.92F
ALLIANCE       CLEAR     64  63  96 SE12      30.02F FOG
SIDNEY         PTCLDY    68  63  84 SW10      30.07F
WHITECLAY        N/A     70  63  79 S17         N/A
RUSHVILLE        N/A     69  67  93 S17         N/A
GORDON           N/A     73  70  91 S21         N/A
CRESCENT LAKE    N/A     65  64  96 S9          N/A
LISCO            N/A     71  66  83 E8          N/A
BIG SPRINGS      N/A     66  63  91 CALM        N/A
$$

...OBSERVATIONS IN NORTH CENTRAL NEBRASKA...

CITY           SKY/WX    TMP DP  RH WIND       PRES   REMARKS
VALENTINE      PTCLDY    66  60  81 S10       29.99F
THEDFORD       CLEAR     66  60  81 S6        30.04F
AINSWORTH      CLEAR     64  59  82 S13       30.02F
O`NEILL        CLOUDY    65  58  78 S12       30.07F
ORD            CLEAR     64  60  87 SE7       30.07F
BROKEN BOW     CLEAR     65  61  87 SE10      30.06F
BROWNLEE         N/A     67  61  81 S15         N/A
SPRINGVIEW       N/A     68  60  75 SE6         N/A
DUNNING          N/A     65  63  93 S7          N/A
ROSE             N/A     70  66  89 E14         N/A
NEWPORT          N/A     67  63  86 S8          N/A
SARGENT          N/A     63  60  91 CALM        N/A
COMSTOCK         N/A     69  66  92 S9          N/A
CHAMBERS         N/A     64  61  89 S3          N/A
EWING            N/A     63  60  88 S3          N/A
$$

...OBSERVATIONS IN SOUTHWEST NEBRASKA AND FAR NORTHEAST COLORADO...

CITY           SKY/WX    TMP DP  RH WIND       PRES   REMARKS
WRAY             N/A     69  67  93 SW8       30.06F
HOLYOKE        FAIR      68  64  88 S6        30.05F FOG
IMPERIAL       CLEAR     67  64  90 S12       30.04F
OGALLALA       CLEAR     63  61  93 CALM      30.04F
NORTH PLATTE   CLEAR     68  61  78 SE10      30.03F
MCCOOK         CLEAR     64  62  93 SE7       30.05F
LEXINGTON      CLEAR     65  62  89 SE7       30.07F
PAXTON           N/A     66  62  88 SE8         N/A
SUTHERLAND       N/A     67  63  89 CALM        N/A
BRADY            N/A     65  60  83 CALM        N/A
GOTHENBURG       N/A     64  58  80 E3          N/A
CALLAWAY         N/A     61  60  95 S12         N/A
$$

...NORTH PLATTE AREA...

CITY           SKY/WX    TMP DP  RH WIND       PRES   REMARKS
AIRPORT        CLEAR     68  61  78 SE10      30.03F
$$

...SOME WEATHER OBSERVATIONS FROM AROUND THE REGION...

CITY           SKY/WX    TMP DP  RH WIND       PRES   REMARKS
DENVER         PTCLDY    67  48  50 CALM      30.14F
LARAMIE        MOCLDY    62  42  47 SW10      30.28F
CHEYENNE       CLOUDY    64  49  57 MISG      30.16F
SCOTTSBLUFF    CLEAR     66  64  93 E12       30.00F
RAPID CITY     PTCLDY    67  64  90 E9        29.88F
PIERRE         PTCLDY    68  59  73 E10       29.94R
WINNER         FAIR      69  58  67 SE16G23   29.95F
SIOUX FALLS    CLOUDY    66  58  75 SE8       30.12R
OMAHA          PTCLDY    67  58  72 SE7       30.13F
GRAND ISLAND   CLEAR     66  61  84 S10       30.10F
KANSAS CITY    PTCLDY    67  59  75 E8        30.14S
WICHITA        PTCLDY    70  64  81 E7        30.10R
HAYS           CLEAR     43 N/A N/A SE7       30.09F
LIBERAL        CLEAR     70  64  83 S7        30.14S
GOODLAND       CLEAR     68  67  96 S16       30.09F FOG
$$



USA.gov is the U.S. government's official web portal to all federal, state and local government web resources and services.